sat.trackr.live / text

‹ back to catalog

CSTP 1.1 (STC 1.1)

NORAD 57202 · 2023-091AN

PAYLOAD ACTIVE UNKNOWN

§ Identity

Operator
Country
CIS
Launch date
2023-06-27
Launch site
VOSTO
Launch vehicle
Mass (kg)
RCS (m²)

External: N2YO · Heavens-Above · Gunter

§ Orbital elements

Epoch: 2026-05-25T03:38:15.690336Z

Period
94.81 min
Inclination
97.5129°
Eccentricity
0.0009649
Mean motion
15.18864629 rev/d
Perigee alt
502.6 km
Apogee alt
515.9 km
Semi-major
6,887.4 km
B*
2.1143e-4
RAAN
204.0920°
Arg perigee
179.7095°
Mean anomaly
180.4146°
Rev number
16,046

§ Raw data

CSTP 1.1 (STC 1.1)1 57202U 23091AN  26145.15157049  .00004343  00000+0  21143-3 0  99982 57202  97.5129 204.0920 0009649 179.7095 180.4146 15.18864629160465

JSON: /api/v1/satellites/57202 · /tle

For live sub-satellite position, see the globe view (requires WebGL).

§ Visibility from observer

Set your observer location to see the next 7 days of passes ≥ 10°. The values pass through the URL so the page stays shareable.

No JS? Fill the form by hand. The geolocation button needs JavaScript.

§ Radio — SatNOGS DB

ModeDescriptionDownlinkUplink
LoRa Mode U - LoRa 436.075 MHz

1 transmitter · refreshed weekly from db.satnogs.org